This is the latest recevied weather packets stored in our database for station/object K5GHS-1. If no packets are shown the sender has not sent any weather packets the latest 1 day(s).
| Time | Temp. | Humidity | Pressure | Rain* | Wind** | Luminosity | Snow |
|---|---|---|---|---|---|---|---|
| 1778004125 | 28.89° C | 66% | 1003.1 hPa | 0 mm | 0.89 m/s, 46° | 396 W/m² | - |
| 1778003821 | 28.89° C | 67% | 1003.1 hPa | 0 mm | 0.45 m/s, 149° | 419 W/m² | - |
| 1778003517 | 28.33° C | 68% | 1003.3 hPa | 0 mm | 0.45 m/s, 82° | 418 W/m² | - |
| 1778003214 | 27.78° C | 69% | 1003 hPa | 0 mm | 0.89 m/s, 81° | 418 W/m² | - |
| 1778002910 | 27.78° C | 69% | 1003.3 hPa | 0 mm | 1.34 m/s, 49° | 397 W/m² | - |
| 1778002606 | 27.78° C | 70% | 1003.2 hPa | 0 mm | 0.45 m/s, 99° | 475 W/m² | - |
| 1778002303 | 27.78° C | 70% | 1003.3 hPa | 0 mm | 0.45 m/s, 112° | 342 W/m² | - |
| 1778002001 | 27.22° C | 70% | 1003.3 hPa | 0 mm | 0.89 m/s, 67° | 332 W/m² | - |
| 1778001697 | 27.22° C | 70% | 1003.2 hPa | 0 mm | 0.45 m/s, 130° | 353 W/m² | - |
| 1778001392 | 27.22° C | 70% | 1003.2 hPa | 0 mm | 0.45 m/s, 140° | 301 W/m² | - |
| 1778001089 | 27.22° C | 71% | 1003 hPa | 0 mm | 0 m/s | 304 W/m² | - |
| 1778000787 | 27.22° C | 70% | 1003.5 hPa | 0 mm | 0.89 m/s, 146° | 288 W/m² | - |
| 1778000483 | 27.22° C | 71% | 1003.3 hPa | 0 mm | 0 m/s | 308 W/m² | - |
| 1778000178 | 27.22° C | 71% | 1003.3 hPa | 0 mm | 0.89 m/s, 77° | 382 W/m² | - |
| 1777999874 | 27.22° C | 70% | 1003.2 hPa | 0 mm | 1.79 m/s, 109° | 317 W/m² | - |
| 1777999570 | 26.67° C | 72% | 1003.5 hPa | 0 mm | 0 m/s | 412 W/m² | - |
| 1777999268 | 26.67° C | 72% | 1003.4 hPa | 0 mm | 0.89 m/s, 249° | 297 W/m² | - |
| 1777998966 | 26.11° C | 73% | 1003.5 hPa | 0 mm | 0 m/s | 340 W/m² | - |
| 1777998663 | 26.11° C | 73% | 1003.2 hPa | 0 mm | 0.89 m/s, 102° | 255 W/m² | - |
| 1777998360 | 26.11° C | 73% | 1003.5 hPa | 0 mm | 0.45 m/s, 75° | 233 W/m² | - |
| 1777998058 | 26.11° C | 73% | 1003.1 hPa | 0 mm | 0.45 m/s, 88° | 222 W/m² | - |
| 1777997755 | 26.67° C | 72% | 1003.2 hPa | 0 mm | 1.79 m/s, 125° | 310 W/m² | - |
| 1777997452 | 26.11° C | 73% | 1003.1 hPa | 0 mm | 0.45 m/s, 296° | 286 W/m² | - |
| 1777997150 | 25.56° C | 74% | 1003 hPa | 0 mm | 0.45 m/s, 44° | 423 W/m² | - |
| 1777996847 | 26.11° C | 73% | 1002.7 hPa | 0 mm | 0.89 m/s, 144° | 251 W/m² | - |
* Rain latest hour (hover to see other rain measurements)
** Current wind speed in m/s (hover to see current wind gust speed)